CTV752 WIII-WARA

Flight info

Callsign CTV752
Flight time 1h 16m
Altitude 35000
Route CA W45 SBR
Aircraft A320/M-SDE3FGHIRWY/LB1

Departure

Time 2026-04-25 23:45
Airport Soekarno-Hatta International Airport (WIII)

Arrival

Time 2026-04-26 01:01
Airport Abdul Rachman Saleh Airport (WARA)
Time Latitude Longitude Altitude Speed Heading
2026-04-25 23:44 -6.10909 106.66899 47 ft 8 kts 304°
2026-04-25 23:44 -6.10915 106.66846 47 ft 8 kts 242°
2026-04-25 23:44 -6.10993 106.66655 47 ft 69 kts 249°
2026-04-25 23:45 -6.11278 106.65948 47 ft 146 kts 248°
2026-04-25 23:45 -6.11732 106.64814 259 ft 189 kts 248°
2026-04-25 23:45 -6.12190 106.63666 1292 ft 177 kts 251°
2026-04-25 23:45 -6.12314 106.62464 2100 ft 180 kts 288°
2026-04-25 23:46 -6.11741 106.61333 2776 ft 190 kts 304°
2026-04-25 23:46 -6.11247 106.60068 3243 ft 205 kts 283°
2026-04-25 23:46 -6.10941 106.58633 3640 ft 221 kts 287°
2026-04-25 23:46 -6.10511 106.57086 4041 ft 237 kts 289°
2026-04-25 23:47 -6.10018 106.55423 4358 ft 260 kts 289°
2026-04-25 23:47 -6.09484 106.53633 4795 ft 278 kts 289°
2026-04-25 23:47 -6.08803 106.51788 5385 ft 285 kts 305°
2026-04-25 23:47 -6.07957 106.50797 5850 ft 281 kts 326°
2026-04-25 23:48 -6.05603 106.49881 6820 ft 273 kts
2026-04-25 23:48 -6.03736 106.50198 7465 ft 272 kts 24°
2026-04-25 23:48 -6.02075 106.51070 7846 ft 272 kts 40°
2026-04-25 23:48 -6.00874 106.52502 7972 ft 267 kts 64°
2026-04-25 23:49 -6.00365 106.54321 7983 ft 272 kts 81°
2026-04-25 23:49 -6.00129 106.56202 7978 ft 273 kts 82°
2026-04-25 23:49 -5.99888 106.58072 7981 ft 272 kts 81°
2026-04-25 23:49 -5.99638 106.59956 7980 ft 272 kts 81°
2026-04-25 23:50 -5.99381 106.61839 7980 ft 272 kts 81°
2026-04-25 23:50 -5.99123 106.63722 7977 ft 272 kts 81°
2026-04-25 23:50 -5.98860 106.65614 7980 ft 272 kts 81°
2026-04-25 23:50 -5.98599 106.67481 7981 ft 272 kts 81°
2026-04-25 23:51 -5.98335 106.69365 7979 ft 272 kts 81°
2026-04-25 23:51 -5.98073 106.71243 7980 ft 272 kts 81°
2026-04-25 23:51 -5.97811 106.73127 7984 ft 272 kts 81°
2026-04-25 23:51 -5.97547 106.75011 7986 ft 272 kts 81°
2026-04-25 23:52 -5.97283 106.76893 7991 ft 272 kts 81°
2026-04-25 23:52 -5.97020 106.78777 7994 ft 272 kts 81°
2026-04-25 23:52 -5.96756 106.80661 7994 ft 272 kts 81°
2026-04-25 23:52 -5.96526 106.82555 7996 ft 273 kts 87°
2026-04-25 23:53 -5.96715 106.84440 8002 ft 277 kts 102°
2026-04-25 23:53 -5.97383 106.86292 8317 ft 285 kts 110°
2026-04-25 23:53 -5.98157 106.88094 9065 ft 284 kts 111°
2026-04-25 23:53 -5.98948 106.89922 9631 ft 285 kts 111°
2026-04-25 23:54 -5.99740 106.91760 9940 ft 286 kts 111°
2026-04-25 23:54 -6.00520 106.93578 9995 ft 285 kts 111°
2026-04-25 23:54 -6.01309 106.95422 9999 ft 285 kts 111°
2026-04-25 23:54 -6.02087 106.97247 10001 ft 285 kts 111°
2026-04-25 23:55 -6.02862 106.99069 9999 ft 286 kts 111°
2026-04-25 23:55 -6.03648 107.00914 9995 ft 286 kts 111°
2026-04-25 23:55 -6.04434 107.02758 9999 ft 286 kts 111°
2026-04-25 23:55 -6.05211 107.04588 10095 ft 291 kts 111°
2026-04-25 23:56 -6.06035 107.06531 10393 ft 307 kts 111°
2026-04-25 23:56 -6.06880 107.08524 10665 ft 322 kts 111°
2026-04-25 23:56 -6.07785 107.10656 10975 ft 336 kts 111°
2026-04-25 23:56 -6.08703 107.12821 11513 ft 340 kts 111°
2026-04-25 23:57 -6.09639 107.15023 12118 ft 343 kts 112°
2026-04-25 23:57 -6.10564 107.17200 12683 ft 345 kts 112°
2026-04-25 23:57 -6.11513 107.19434 13210 ft 349 kts 112°
2026-04-25 23:57 -6.12463 107.21667 13747 ft 351 kts 112°
2026-04-25 23:58 -6.13434 107.23949 14288 ft 353 kts 112°
2026-04-25 23:58 -6.14393 107.26208 14791 ft 356 kts 112°
2026-04-25 23:58 -6.15367 107.28506 15275 ft 359 kts 112°
2026-04-25 23:58 -6.16344 107.30810 15749 ft 361 kts 112°
2026-04-25 23:59 -6.17327 107.33129 16226 ft 363 kts 112°
2026-04-25 23:59 -6.18326 107.35490 16683 ft 366 kts 111°
2026-04-25 23:59 -6.19309 107.37812 17137 ft 367 kts 112°
2026-04-25 23:59 -6.20320 107.40204 17554 ft 370 kts 112°
2026-04-26 00:00 -6.21321 107.42572 17950 ft 373 kts 112°
2026-04-26 00:00 -6.22336 107.44972 18354 ft 375 kts 112°
2026-04-26 00:00 -6.23361 107.47401 18761 ft 377 kts 112°
2026-04-26 00:00 -6.24377 107.49802 19134 ft 379 kts 112°
2026-04-26 00:01 -6.25420 107.52269 19513 ft 381 kts 112°
2026-04-26 00:01 -6.26456 107.54722 19868 ft 384 kts 112°
2026-04-26 00:01 -6.27500 107.57190 20221 ft 386 kts 112°
2026-04-26 00:01 -6.28559 107.59695 20571 ft 389 kts 112°
2026-04-26 00:02 -6.29614 107.62193 20913 ft 391 kts 112°
2026-04-26 00:02 -6.30684 107.64724 21254 ft 393 kts 112°
2026-04-26 00:02 -6.31743 107.67236 21583 ft 396 kts 112°
2026-04-26 00:02 -6.32819 107.69785 21903 ft 398 kts 112°
2026-04-26 00:03 -6.33900 107.72344 22210 ft 401 kts 112°
2026-04-26 00:03 -6.34989 107.74924 22534 ft 403 kts 112°
2026-04-26 00:03 -6.36080 107.77505 22866 ft 405 kts 112°
2026-04-26 00:03 -6.37196 107.80147 23186 ft 407 kts 112°
2026-04-26 00:04 -6.38300 107.82762 23507 ft 409 kts 112°
2026-04-26 00:04 -6.39403 107.85377 23817 ft 411 kts 112°
2026-04-26 00:04 -6.40522 107.88031 24133 ft 413 kts 112°
2026-04-26 00:04 -6.41637 107.90677 24458 ft 414 kts 112°
2026-04-26 00:05 -6.42773 107.93375 24767 ft 416 kts 112°
2026-04-26 00:05 -6.43902 107.96055 25064 ft 418 kts 111°
2026-04-26 00:05 -6.45026 107.98723 25351 ft 420 kts 111°
2026-04-26 00:05 -6.46178 108.01451 25640 ft 422 kts 112°
2026-04-26 00:06 -6.47338 108.04140 25923 ft 424 kts 112°
2026-04-26 00:06 -6.48518 108.06849 26206 ft 425 kts 112°
2026-04-26 00:06 -6.49708 108.09578 26494 ft 427 kts 112°
2026-04-26 00:06 -6.50886 108.12286 26763 ft 428 kts 111°
2026-04-26 00:07 -6.52082 108.15037 27029 ft 430 kts 111°
2026-04-26 00:07 -6.53289 108.17819 27294 ft 431 kts 111°
2026-04-26 00:07 -6.54483 108.20574 27536 ft 433 kts 111°
2026-04-26 00:07 -6.55687 108.23354 27774 ft 435 kts 111°
2026-04-26 00:08 -6.56904 108.26165 28005 ft 437 kts 111°
2026-04-26 00:08 -6.58111 108.28951 28238 ft 439 kts 111°
2026-04-26 00:08 -6.59333 108.31773 28476 ft 441 kts 111°
2026-04-26 00:08 -6.60551 108.34587 28702 ft 442 kts 111°
2026-04-26 00:09 -6.61788 108.37449 28940 ft 444 kts 111°
2026-04-26 00:09 -6.63009 108.40272 29152 ft 446 kts 111°
2026-04-26 00:09 -6.64257 108.43160 29367 ft 448 kts 111°
2026-04-26 00:09 -6.65496 108.46018 29578 ft 449 kts 111°
2026-04-26 00:10 -6.66735 108.48879 29792 ft 451 kts 111°
2026-04-26 00:10 -6.67929 108.51807 29995 ft 451 kts 109°
2026-04-26 00:10 -6.68960 108.54770 30191 ft 452 kts 105°
2026-04-26 00:10 -6.69840 108.57811 30388 ft 453 kts 102°
2026-04-26 00:11 -6.70552 108.60891 30645 ft 452 kts 99°
2026-04-26 00:11 -6.71101 108.63976 30919 ft 450 kts 97°
2026-04-26 00:11 -6.71605 108.67113 31182 ft 450 kts 97°
2026-04-26 00:11 -6.72089 108.70168 31442 ft 450 kts 97°
2026-04-26 00:12 -6.72584 108.73288 31712 ft 450 kts 97°
2026-04-26 00:12 -6.73076 108.76378 31967 ft 449 kts 97°
2026-04-26 00:12 -6.73571 108.79479 32245 ft 449 kts 97°
2026-04-26 00:12 -6.74066 108.82574 32522 ft 448 kts 97°
2026-04-26 00:13 -6.74557 108.85648 32797 ft 448 kts 97°
2026-04-26 00:13 -6.75052 108.88747 33091 ft 447 kts 97°
2026-04-26 00:13 -6.75544 108.91835 33354 ft 448 kts 97°
2026-04-26 00:13 -6.76029 108.94881 33557 ft 449 kts 97°
2026-04-26 00:14 -6.76529 108.98014 33767 ft 450 kts 97°
2026-04-26 00:14 -6.77017 109.01083 33970 ft 451 kts 97°
2026-04-26 00:14 -6.77515 109.04198 34166 ft 452 kts 97°
2026-04-26 00:14 -6.78011 109.07318 34383 ft 452 kts 97°
2026-04-26 00:15 -6.78505 109.10429 34569 ft 453 kts 97°
2026-04-26 00:15 -6.79003 109.13562 34724 ft 454 kts 97°
2026-04-26 00:15 -6.79488 109.16712 34874 ft 455 kts 97°
2026-04-26 00:16 -6.80424 109.22984 34889 ft 456 kts 97°
2026-04-26 00:16 -6.81364 109.29298 34890 ft 456 kts 97°
2026-04-26 00:17 -6.82298 109.35562 34893 ft 456 kts 97°
2026-04-26 00:17 -6.83235 109.41854 34893 ft 456 kts 97°
2026-04-26 00:18 -6.84174 109.48158 34898 ft 456 kts 97°
2026-04-26 00:18 -6.85108 109.54434 34901 ft 456 kts 97°
2026-04-26 00:19 -6.86046 109.60738 34906 ft 455 kts 97°
2026-04-26 00:19 -6.86975 109.66987 34910 ft 455 kts 97°
2026-04-26 00:20 -6.87913 109.73297 34912 ft 455 kts 97°
2026-04-26 00:20 -6.88838 109.79547 34915 ft 455 kts 97°
2026-04-26 00:21 -6.89771 109.85843 34918 ft 455 kts 97°
2026-04-26 00:21 -6.90697 109.92103 34920 ft 455 kts 97°
2026-04-26 00:22 -6.91627 109.98390 34923 ft 454 kts 97°
2026-04-26 00:22 -6.92549 110.04625 34921 ft 454 kts 97°
2026-04-26 00:23 -6.93480 110.10928 34919 ft 454 kts 97°
2026-04-26 00:23 -6.94400 110.17167 34913 ft 454 kts 97°
2026-04-26 00:24 -6.95320 110.23422 34912 ft 453 kts 97°
2026-04-26 00:24 -6.96239 110.29667 34905 ft 452 kts 97°
2026-04-26 00:25 -6.97133 110.35937 34902 ft 453 kts 95°
2026-04-26 00:25 -6.97549 110.42229 34897 ft 451 kts 90°
2026-04-26 00:26 -6.97665 110.48522 34893 ft 450 kts 90°
2026-04-26 00:26 -6.97772 110.54808 34891 ft 450 kts 90°
2026-04-26 00:27 -6.97881 110.61076 34886 ft 450 kts 90°
2026-04-26 00:27 -6.97993 110.67390 34889 ft 450 kts 90°
2026-04-26 00:28 -6.98104 110.73653 34889 ft 449 kts 90°
2026-04-26 00:28 -6.98214 110.79926 34894 ft 449 kts 90°
2026-04-26 00:29 -6.98323 110.86214 34897 ft 449 kts 90°
2026-04-26 00:29 -6.98433 110.92481 34901 ft 449 kts 90°
2026-04-26 00:30 -6.98539 110.98719 34902 ft 448 kts 90°
2026-04-26 00:30 -6.98645 111.04971 34908 ft 448 kts 90°
2026-04-26 00:31 -6.98751 111.11231 34908 ft 448 kts 90°
2026-04-26 00:31 -6.98857 111.17516 34905 ft 448 kts 90°
2026-04-26 00:32 -6.98960 111.23736 34906 ft 448 kts 90°
2026-04-26 00:32 -6.99115 111.33132 34905 ft 448 kts 90°
2026-04-26 00:33 -6.99459 111.39365 34908 ft 449 kts 95°
2026-04-26 00:33 -7.00440 111.45566 34909 ft 450 kts 101°
2026-04-26 00:34 -7.02023 111.51677 34909 ft 451 kts 104°
2026-04-26 00:34 -7.03744 111.57719 34906 ft 450 kts 104°
2026-04-26 00:35 -7.05461 111.63760 34905 ft 450 kts 104°
2026-04-26 00:35 -7.07181 111.69829 34904 ft 451 kts 104°
2026-04-26 00:36 -7.08894 111.75880 34904 ft 451 kts 104°
2026-04-26 00:36 -7.10608 111.81943 34904 ft 451 kts 104°
2026-04-26 00:37 -7.12310 111.87962 34907 ft 450 kts 104°
2026-04-26 00:37 -7.14030 111.94051 34909 ft 450 kts 104°
2026-04-26 00:38 -7.15730 112.00075 34909 ft 450 kts 104°
2026-04-26 00:38 -7.17438 112.06126 34640 ft 451 kts 104°
2026-04-26 00:39 -7.18296 112.09170 34096 ft 449 kts 104°
2026-04-26 00:39 -7.19145 112.12178 33435 ft 446 kts 104°
2026-04-26 00:39 -7.19982 112.15143 32716 ft 444 kts 104°
2026-04-26 00:39 -7.20548 112.17155 32245 ft 444 kts 104°
2026-04-26 00:40 -7.21656 112.21095 31315 ft 443 kts 104°
2026-04-26 00:40 -7.22495 112.24082 30586 ft 443 kts 104°
2026-04-26 00:40 -7.23326 112.27036 29884 ft 442 kts 104°
2026-04-26 00:40 -7.24164 112.30017 29433 ft 442 kts 104°
2026-04-26 00:41 -7.25004 112.32999 28976 ft 439 kts 105°
2026-04-26 00:41 -7.25828 112.35925 28517 ft 436 kts 105°
2026-04-26 00:41 -7.26645 112.38828 28068 ft 432 kts 105°
2026-04-26 00:41 -7.27465 112.41740 27592 ft 429 kts 105°
2026-04-26 00:42 -7.28261 112.44569 27114 ft 425 kts 105°
2026-04-26 00:42 -7.29060 112.47411 26631 ft 421 kts 105°
2026-04-26 00:42 -7.29858 112.50254 26143 ft 417 kts 105°
2026-04-26 00:42 -7.30644 112.53052 25659 ft 414 kts 105°
2026-04-26 00:43 -7.31414 112.55798 25186 ft 410 kts 105°
2026-04-26 00:43 -7.31692 112.56786 25014 ft 409 kts 105°
2026-04-26 00:43 -7.32126 112.58334 24748 ft 407 kts 105°
2026-04-26 00:43 -7.32886 112.61043 24278 ft 403 kts 105°
2026-04-26 00:44 -7.33532 112.63348 23877 ft 400 kts 105°
2026-04-26 00:44 -7.34283 112.66024 23412 ft 397 kts 105°
2026-04-26 00:44 -7.35033 112.68699 22943 ft 393 kts 105°
2026-04-26 00:44 -7.35817 112.71315 22460 ft 391 kts 111°
2026-04-26 00:45 -7.37222 112.73642 21964 ft 390 kts 130°
2026-04-26 00:45 -7.38549 112.74867 21640 ft 391 kts 142°
2026-04-26 00:45 -7.41836 112.76336 20987 ft 393 kts 167°
2026-04-26 00:45 -7.44585 112.76444 20496 ft 394 kts 184°
2026-04-26 00:46 -7.47275 112.76087 20036 ft 392 kts 184°
2026-04-26 00:46 -7.49989 112.75792 19543 ft 389 kts 184°
2026-04-26 00:46 -7.52670 112.75520 19098 ft 386 kts 183°
2026-04-26 00:46 -7.55352 112.75250 18636 ft 383 kts 183°
2026-04-26 00:47 -7.57984 112.74983 18173 ft 381 kts 183°
2026-04-26 00:47 -7.60628 112.74710 17722 ft 378 kts 183°
2026-04-26 00:47 -7.63249 112.74439 17256 ft 376 kts 183°
2026-04-26 00:47 -7.65849 112.74169 16801 ft 374 kts 183°
2026-04-26 00:48 -7.68441 112.73902 16364 ft 372 kts 183°
2026-04-26 00:48 -7.71019 112.73635 15875 ft 371 kts 183°
2026-04-26 00:48 -7.73571 112.73369 15561 ft 364 kts 183°
2026-04-26 00:48 -7.76042 112.73110 15485 ft 349 kts 183°
2026-04-26 00:49 -7.78430 112.72860 15420 ft 335 kts 183°
2026-04-26 00:49 -7.80714 112.72620 15365 ft 322 kts 183°
2026-04-26 00:49 -7.82895 112.72393 15307 ft 310 kts 183°
2026-04-26 00:49 -7.85009 112.72173 15239 ft 298 kts 183°
2026-04-26 00:50 -7.87052 112.71959 15193 ft 285 kts 183°
2026-04-26 00:50 -7.88972 112.71760 15133 ft 274 kts 182°
2026-04-26 00:50 -7.90881 112.71561 15084 ft 271 kts 182°
2026-04-26 00:50 -7.92746 112.71369 14960 ft 271 kts 182°
2026-04-26 00:51 -7.94638 112.71177 14639 ft 274 kts 182°
2026-04-26 00:51 -7.96582 112.70985 14187 ft 280 kts 182°
2026-04-26 00:51 -7.98529 112.70792 13736 ft 284 kts 182°
2026-04-26 00:51 -8.00510 112.70594 13306 ft 287 kts 182°
2026-04-26 00:52 -8.02500 112.70396 12866 ft 289 kts 182°
2026-04-26 00:52 -8.04517 112.70194 12407 ft 288 kts 183°
2026-04-26 00:52 -8.06483 112.69997 11945 ft 286 kts 183°
2026-04-26 00:52 -8.08477 112.69797 11489 ft 283 kts 184°
2026-04-26 00:53 -8.10422 112.69601 11042 ft 280 kts 184°
2026-04-26 00:53 -8.12374 112.69405 10342 ft 288 kts 184°
2026-04-26 00:53 -8.14387 112.69206 9767 ft 293 kts 184°
2026-04-26 00:53 -8.16419 112.69002 9431 ft 290 kts 185°
2026-04-26 00:54 -8.18411 112.68800 9085 ft 283 kts 185°
2026-04-26 00:54 -8.20326 112.68776 8725 ft 274 kts 167°
2026-04-26 00:54 -8.22067 112.69526 8383 ft 269 kts 141°
2026-04-26 00:54 -8.23315 112.70904 7954 ft 265 kts 117°
2026-04-26 00:55 -8.23887 112.72628 7603 ft 257 kts 95°
2026-04-26 00:55 -8.23770 112.74380 7339 ft 251 kts 73°
2026-04-26 00:55 -8.23018 112.75954 7040 ft 248 kts 52°
2026-04-26 00:55 -8.21767 112.77114 6750 ft 247 kts 31°
2026-04-26 00:56 -8.20143 112.77684 6465 ft 246 kts
2026-04-26 00:56 -8.18440 112.77649 6177 ft 245 kts 352°
2026-04-26 00:56 -8.16775 112.77302 5912 ft 243 kts 347°
2026-04-26 00:56 -8.15134 112.76874 5628 ft 241 kts 346°
2026-04-26 00:57 -8.13503 112.76448 5368 ft 238 kts 347°
2026-04-26 00:57 -8.11930 112.76051 5127 ft 235 kts 347°
2026-04-26 00:57 -8.10322 112.75658 4824 ft 234 kts 347°
2026-04-26 00:57 -8.08764 112.75281 4598 ft 227 kts 347°
2026-04-26 00:58 -8.07244 112.74914 4307 ft 216 kts 347°
2026-04-26 00:58 -8.05846 112.74575 4003 ft 198 kts 347°
2026-04-26 00:58 -8.04565 112.74264 3768 ft 181 kts 348°
2026-04-26 00:58 -8.03383 112.73977 3517 ft 167 kts 348°
2026-04-26 00:59 -8.02300 112.73714 3293 ft 153 kts 348°
2026-04-26 00:59 -8.01298 112.73470 3099 ft 144 kts 348°
2026-04-26 00:59 -8.00323 112.73235 2943 ft 143 kts 348°
2026-04-26 00:59 -7.99356 112.73000 2779 ft 143 kts 348°
2026-04-26 01:00 -7.98388 112.72765 2605 ft 142 kts 348°
2026-04-26 01:00 -7.97417 112.72529 2423 ft 141 kts 348°
2026-04-26 01:00 -7.96464 112.72297 2241 ft 140 kts 348°
2026-04-26 01:00 -7.95517 112.72067 2061 ft 140 kts 348°
2026-04-26 01:01 -7.94565 112.71833 1885 ft 140 kts 347°
2026-04-26 01:01 -7.93627 112.71604 1756 ft 138 kts 347°
2026-04-26 01:01 -7.92853 112.71420 1749 ft 73 kts 346°
2026-04-26 01:01 -7.92488 112.71330 1748 ft 49 kts 347°
2026-04-26 01:02 -7.92193 112.71260 1748 ft 31 kts 346°
2026-04-26 01:02 -7.92057 112.71214 1748 ft 9 kts 329°
2026-04-26 01:02 -7.91990 112.71218 1748 ft 8 kts 50°
2026-04-26 01:02 -7.91965 112.71284 1748 ft 10 kts 73°
2026-04-26 01:03 -7.91951 112.71336 1747 ft 6 kts 77°
2026-04-26 01:03 -7.91970 112.71371 1747 ft 6 kts 144°
2026-04-26 01:03 -7.92017 112.71388 1747 ft 7 kts 168°
2026-04-26 01:03 -7.92052 112.71395 1747 ft 4 kts 167°
2026-04-26 01:04 -7.92088 112.71403 1747 ft 5 kts 167°
2026-04-26 01:04 -7.92122 112.71411 1747 ft 0 kts 167°
2026-04-26 01:04 -7.92124 112.71411 1747 ft 1 kts 167°
2026-04-26 01:04 -7.92164 112.71420 1747 ft 12 kts 167°
2026-04-26 01:05 -7.92287 112.71451 1747 ft 21 kts 165°
2026-04-26 01:05 -7.92447 112.71491 1747 ft 26 kts 167°
2026-04-26 01:05 -7.92635 112.71538 1748 ft 28 kts 165°
2026-04-26 01:05 -7.92827 112.71582 1748 ft 27 kts 166°
2026-04-26 01:06 -7.92926 112.71607 1748 ft 26 kts 166°
2026-04-26 01:06 -7.93102 112.71650 1748 ft 25 kts 166°
2026-04-26 01:06 -7.93273 112.71692 1748 ft 24 kts 166°
2026-04-26 01:06 -7.93433 112.71732 1748 ft 17 kts 167°
2026-04-26 01:07 -7.93492 112.71723 1748 ft 8 kts 234°
2026-04-26 01:07 -7.93510 112.71663 1749 ft 9 kts 257°
2026-04-26 01:07 -7.93526 112.71593 1749 ft 10 kts 257°
2026-04-26 01:07 -7.93543 112.71515 1750 ft 11 kts 258°
2026-04-26 01:08 -7.93561 112.71431 1750 ft 12 kts 258°
2026-04-26 01:08 -7.93581 112.71341 1751 ft 13 kts 256°
2026-04-26 01:08 -7.93612 112.71264 1751 ft 9 kts 188°
2026-04-26 01:08 -7.93677 112.71276 1751 ft 7 kts 166°
2026-04-26 01:09 -7.93704 112.71259 1751 ft 4 kts 251°
2026-04-26 01:09 -7.93709 112.71234 1752 ft 4 kts 256°
2026-04-26 01:09 -7.93711 112.71229 1752 ft 0 kts 256°